CAPE
27 12 13 11 4 3 3 11 12 4 2 1 30 81 147 217 144 94 41 1 37 55 90 109 132 15 99 116 162 110 96 19 38 35 3 0 0 0 0 5 7 0 15 75 512
24 7 10 5 7 2 1 16 3 4 4 5 38 88 134 151 119 44 11 1 18 132 194 130 59 23 84 13 107 83 62 2 14 42 45 10 0 0 0 0 5 2 8 492 999
22 11 18 5 7 3 1 2 8 6 5 53 55 88 110 119 74 56 19 10 28 63 26 134 92 18 10 36 24 70 15 47 92 30 30 40 4 0 0 0 0 0 9 461 1154
17 19 5 17 6 3 3 2 2 4 21 74 83 67 47 79 0 5 45 53 37 2 16 183 90 15 3 33 17 66 91 63 51 1 0 22 6 0 0 1 0 0 2 305 700
16 20 8 8 24 4 2 3 1 0 0 82 100 14 35 27 8 0 0 0 5 2 111 176 35 36 0 21 84 59 1 49 64 42 30 20 2 9 5 0 0 0 0 44 381
13 12 11 0 10 10 6 8 0 0 0 70 70 1 31 17 6 7 3 0 4 58 101 105 56 42 20 15 29 71 31 37 25 62 59 58 51 27 0 0 0 0 0 1 0
6 10 12 7 2 9 5 7 0 0 0 1 57 0 31 7 20 12 0 0 0 71 86 49 23 6 17 38 52 69 52 72 10 29 45 57 24 0 8 0 0 0 0 0 0
6 6 8 10 2 3 3 0 0 0 0 0 0 0 6 5 19 29 13 7 61 59 19 2 17 55 73 63 37 28 33 1 32 60 57 20 0 3 1 2 0 0 0 0 0
5 3 6 7 1 1 1 0 0 0 0 0 0 1 11 21 5 3 2 24 30 47 35 13 32 16 59 28 26 38 10 20 28 29 42 12 0 0 26 1 0 0 0 0 0
6 4 5 7 2 0 0 0 0 0 0 0 0 0 1 1 0 0 0 23 24 26 0 4 27 18 18 18 4 3 8 23 28 22 14 22 0 24 13 0 0 0 0 0 0
2 1 4 4 0 0 0 0 0 0 0 0 7 7 3 9 5 2 0 33 26 19 2 1 7 2 2 19 28 8 22 23 26 13 12 6 13 0 6 0 0 0 0 0 0
4 1 3 4 0 0 0 0 0 0 4 1 0 2 0 0 8 3 5 20 10 12 5 1 15 5 9 26 20 49 32 38 21 14 0 2 1 0 0 0 0 0 0 0 0
1 0 2 1 0 0 0 0 0 0 9 0 0 0 0 0 4 17 9 1 13 6 7 0 8 4 9 11 16 15 19 22 13 0 2 5 0 0 0 0 0 0 0 0 0
2 0 1 0 0 0 0 0 0 0 0 0 0 2 1 0 3 4 9 18 8 1 0 0 0 0 3 11 2 6 8 2 0 6 4 0 0 0 0 0 0 0 0 0 0
3 1 0 0 0 0 0 0 0 0 0 0 5 0 0 1 0 10 17 18 4 0 8 2 4 1 7 1 0 36 6 16 20 13 12 15 4 0 1 0 0 0 0 0 0
1 1 0 0 1 0 0 0 0 0 0 0 3 5 2 0 0 1 9 3 10 5 5 0 2 6 11 24 11 8 3 18 19 17 3 2 5 0 0 0 0 0 0 0 0
0 0 0 0 1 0 0 0 0 0 0 0 3 4 0 2 1 0 3 6 15 8 0 1 16 16 4 18 17 7 9 8 5 2 0 0 0 0 0 0 0 0 0 0 0
0 0 0 0 0 0 2 0 0 0 0 0 0 0 1 0 1 0 4 8 3 2 3 0 0 5 1 15 6 1 18 8 3 2 0 0 0 0 0 0 0 0 0 0 0
0 0 2 0 2 1 0 0 0 0 0 0 5 5 10 1 3 7 4 3 4 1 7 0 0 3 0 18 23 5 20 25 8 0 0 0 0 0 0 0 0 0 0 0 0
0 0 2 0 0 1 0 0 0 0 0 0 3 1 2 8 3 8 2 0 1 0 5 4 0 3 2 1 3 12 4 8 1 0 0 0 0 0 0 0 0 0 0 0 0
0 0 1 0 0 0 0 0 0 0 0 0 0 0 0 5 17 8 3 1 0 0 0 3 3 4 1 1 0 1 0 2 5 0 9 7 0 0 0 0 0 0 0 0 0
0 0 3 2 0 0 0 0 0 0 0 0 0 0 0 2 7 25 4 8 0 5 1 0 20 0 0 0 3 0 0 2 3 7 3 0 0 0 0 0 0 0 0 0 0
0 0 0 1 0 0 0 0 0 0 0 0 0 0 0 0 4 9 30 27 29 32 4 0 6 3 0 2 4 8 10 11 8 9 0 5 0 0 0 0 0 0 0 0 0
0 0 0 0 0 0 0 0 0 0 0 0 0 0 2 5 6 17 24 24 25 18 9 7 10 0 0 0 0 1 0 1 4 0 0 0 0 0 0 0 0 0 0 0 0
0 0 0 0 0 0 0 0 0 0 0 0 0 1 4 3 5 1 12 23 30 40 31 2 0 2 5 0 0 0 0 0 1 0 3 0 4 0 0 0 0 0 0 0 0
0 0 0 0 0 0 0 0 0 0 0 0 0 0 0 0 0 0 0 0 9 39 2 2 0 0 0 0 0 0 0 0 1 1 2 8 0 0 0 0 0 0 0 0 0
0 0 0 0 0 0 0 0 0 0 0 0 0 0 0 0 0 0 0 4 1 0 0 0 0 0 0 0 0 0 0 0 0 0 0 0 0 0 0 0 0 0 0 0 0
CIN
-0 -2 -0 -0 -0 -0 -0 -0 -0 -0 -0 -0 -6 -6 -5 -3 -19 -4 -0 -21 -2 -7 -3 -10 -1 -27 -6 -8 -15 -39 -0 -4 -4 -8 -4 -0 -0 -0 -0 -181 -229 -0 -30 -244 -135
-0 -3 -0 -0 -0 -0 -0 -0 -0 -0 -0 -10 -10 -7 -18 -14 -1 -0 -17 -13 -11 -0 -1 -2 -1 -3 -17 -2 -5 -5 -0 -1 -6 -12 -6 -9 -0 -0 -0 -0 -173 -126 -65 -137 -45
-0 -1 -0 -0 -0 -0 -0 -0 -0 -0 -0 -2 -12 -23 -25 -19 -0 -1 -3 -13 -1 -1 -25 -1 -15 -30 -53 -15 -8 -2 -4 -5 -29 -64 -7 -31 -14 -0 -0 -0 -17 -0 -72 -133 -21
-0 -0 -0 -0 -0 -0 -0 -0 -0 -0 -5 -9 -20 -51 -62 -1 -2 -1 -0 -1 -4 -13 -37 -1 -7 -45 -52 -2 -3 -0 -1 -16 -18 -9 -0 -40 -3 -5 -0 -6 -0 -0 -68 -145 -61
-0 -0 -3 -0 -0 -0 -0 -0 -0 -0 -0 -7 -30 -91 -53 -0 -3 -0 -3 -0 -35 -14 -11 -0 -2 -17 -0 -8 -5 -2 -5 -1 -45 -23 -5 -7 -3 -12 -44 -0 -0 -0 -35 -202 -101
-1 -1 -3 -0 -0 -0 -0 -0 -0 -0 -0 -7 -41 -49 -12 -0 -12 -13 -8 -0 -5 -14 -3 -10 -2 -2 -3 -1 -3 -1 -5 -1 -41 -34 -20 -17 -1 -38 -0 -0 -0 -0 -0 -152 -0
-1 -2 -1 -1 -0 -0 -0 -0 -0 -0 -0 -1 -36 -5 -5 -1 -4 -1 -1 -0 -0 -6 -4 -67 -51 -1 -14 -1 -3 -1 -7 -1 -21 -2 -13 -19 -2 -5 -4 -0 -0 -0 -0 -0 -0
-0 -1 -1 -3 -0 -0 -0 -0 -0 -0 -0 -0 -0 -0 -0 -8 -5 -0 -1 -6 -16 -2 -4 -41 -36 -7 -46 -2 -1 -1 -2 -1 -0 -1 -2 -22 -0 -31 -37 -1 -0 -0 -0 -0 -0
-0 -0 -1 -2 -0 -0 -0 -0 -0 -0 -0 -0 -0 -2 -1 -1 -1 -1 -1 -1 -23 -1 -10 -34 -13 -5 -6 -0 -6 -1 -2 -2 -2 -2 -2 -26 -0 -0 -4 -2 -0 -0 -0 -0 -0
-0 -0 -0 -1 -0 -0 -0 -0 -0 -0 -0 -0 -0 -0 -1 -1 -0 -1 -0 -1 -0 -11 -0 -4 -1 -1 -2 -1 -0 -0 -3 -3 -5 -1 -2 -4 -0 -2 -15 -0 -0 -0 -0 -0 -0
-0 -0 -0 -2 -0 -0 -0 -0 -0 -0 -0 -0 -0 -0 -1 -1 -2 -0 -0 -0 -0 -1 -0 -0 -0 -0 -1 -2 -11 -3 -2 -4 -2 -3 -0 -1 -6 -0 -4 -0 -0 -0 -0 -0 -0
-0 -0 -0 -0 -0 -0 -0 -0 -0 -0 -0 -0 -0 -0 -0 -1 -0 -0 -1 -0 -0 -0 -0 -0 -0 -1 -2 -2 -2 -4 -3 -2 -7 -3 -0 -1 -1 -0 -0 -0 -0 -0 -0 -0 -0
-0 -0 -0 -0 -0 -0 -0 -0 -0 -0 -1 -0 -0 -0 -0 -0 -3 -0 -0 -0 -0 -0 -0 -5 -0 -1 -1 -1 -1 -6 -3 -6 -2 -0 -2 -1 -0 -0 -0 -0 -0 -0 -0 -0 -0
-0 -0 -0 -0 -0 -0 -0 -0 -0 -0 -0 -0 -0 -0 -0 -0 -1 -11 -3 -3 -0 -0 -0 -0 -0 -0 -1 -1 -2 -8 -5 -4 -0 -1 -0 -0 -0 -0 -0 -0 -0 -0 -0 -0 -0
-0 -0 -0 -0 -0 -0 -0 -0 -0 -0 -0 -0 -0 -0 -0 -0 -0 -0 -7 -1 -1 -1 -0 -0 -1 -0 -2 -0 -0 -0 -17 -15 -14 -21 -2 -2 -0 -0 -2 -0 -0 -0 -0 -0 -0
-0 -0 -0 -0 -0 -0 -0 -0 -0 -0 -0 -0 -0 -0 -0 -0 -0 -1 -1 -4 -1 -0 -0 -0 -2 -2 -2 -12 -16 -8 -28 -12 -10 -5 -2 -3 -2 -0 -0 -0 -0 -0 -0 -0 -0
-0 -0 -0 -0 -0 -0 -0 -0 -0 -0 -0 -0 -0 -0 -0 -0 -0 -0 -0 -0 -0 -0 -0 -15 -0 -0 -6 -0 -4 -5 -1 -0 -0 -3 -0 -0 -0 -0 -0 -0 -0 -0 -0 -0 -0
-0 -0 -0 -0 -0 -0 -0 -0 -0 -0 -0 -0 -0 -0 -1 -0 -0 -0 -0 -1 -1 -0 -0 -0 -0 -0 -10 -1 -1 -1 -1 -1 -1 -3 -0 -0 -0 -0 -0 -0 -0 -0 -0 -0 -0
-0 -0 -0 -0 -8 -0 -0 -0 -0 -0 -0 -0 -0 -0 -1 -2 -0 -0 -1 -2 -2 -1 -0 -0 -0 -2 -0 -3 -5 -2 -1 -3 -1 -2 -0 -0 -0 -0 -0 -0 -0 -0 -0 -0 -0
-0 -0 -0 -0 -6 -0 -0 -0 -0 -0 -0 -0 -1 -0 -0 -1 -2 -0 -1 -0 -1 -0 -1 -12 -0 -0 -0 -0 -11 -1 -1 -1 -3 -0 -1 -0 -0 -0 -0 -0 -0 -0 -0 -0 -0
-0 -0 -0 -0 -0 -0 -0 -0 -0 -0 -0 -0 -0 -0 -0 -0 -1 -0 -1 -1 -0 -0 -0 -1 -6 -0 -0 -0 -0 -0 -0 -1 -4 -0 -1 -3 -3 -0 -0 -0 -0 -0 -0 -0 -0
-0 -0 -0 -0 -0 -0 -0 -0 -0 -0 -0 -0 -0 -0 -0 -1 -0 -1 -1 -5 -0 -0 -0 -0 -0 -1 -0 -0 -6 -1 -2 -2 -1 -1 -3 -0 -0 -0 -0 -0 -0 -0 -0 -0 -0
-0 -0 -0 -0 -0 -0 -0 -0 -0 -0 -0 -0 -0 -0 -0 -0 -0 -1 -1 -1 -4 -2 -1 -0 -1 -0 -0 -0 -0 -0 -0 -0 -1 -2 -0 -1 -0 -0 -0 -0 -0 -0 -0 -0 -0
-0 -0 -0 -0 -0 -0 -0 -0 -0 -0 -0 -0 -0 -0 -1 -1 -7 -1 -1 -9 -26 -14 -5 -5 -4 -0 -0 -0 -0 -0 -0 -0 -0 -2 -1 -0 -0 -0 -0 -0 -0 -0 -0 -0 -0
-0 -0 -0 -0 -0 -0 -0 -0 -0 -0 -0 -0 -0 -0 -1 -1 -2 -0 -7 -6 -5 -20 -0 -0 -0 -0 -1 -0 -0 -0 -0 -0 -1 -0 -0 -0 -3 -0 -0 -0 -0 -0 -0 -0 -0
-0 -0 -0 -0 -0 -0 -0 -0 -0 -0 -0 -0 -0 -0 -0 -0 -0 -0 -0 -0 -5 -4 -1 -0 -0 -0 -0 -0 -0 -0 -0 -0 -1 -1 -2 -0 -0 -0 -0 -0 -0 -0 -0 -0 -0
-0 -0 -0 -0 -0 -0 -0 -0 -0 -0 -0 -0 -0 -0 -0 -0 -0 -0 -0 -0 -0 -0 -0 -0 -0 -0 -0 -0 -0 -0 -0 -0 -0 -0 -0 -0 -0 -0 -0 -0 -0 -0 -0 -0 -0
Wind_Speed
24 26 26 26 25 26 25 25 26 27 25 24 22 19 23 22 20 24 27 25 27 25 23 29 27 26 26 31 34 31 36 45 41 33 31 23 24 22 18 18 16 18 19 18 17
23 25 25 25 25 25 24 24 25 26 25 24 22 19 22 19 21 20 22 27 27 27 26 25 28 27 31 35 31 36 40 37 35 24 27 25 26 23 21 18 19 18 16 15 13
22 23 23 24 24 25 24 22 24 24 25 23 21 19 20 17 19 17 19 25 28 26 25 24 26 29 35 31 33 40 42 33 30 26 20 26 26 23 23 23 20 21 20 16 16
21 22 21 22 22 23 23 22 22 23 23 22 19 18 9 17 16 18 19 22 25 25 26 24 26 31 37 38 37 34 37 32 26 26 28 23 21 25 25 19 16 15 16 17 18
21 22 21 19 21 21 21 20 22 22 22 19 17 13 8 15 16 17 21 21 22 24 26 27 24 29 38 41 33 39 36 30 28 27 28 30 28 26 24 20 17 16 15 16 20
20 21 20 18 19 20 20 19 20 21 20 18 16 12 12 15 15 17 18 20 20 24 25 25 23 25 33 35 36 30 25 29 28 28 27 30 30 28 28 22 22 19 18 16 17
20 19 20 18 17 18 19 18 20 20 19 17 15 14 20 13 14 13 15 17 20 21 25 22 18 25 26 30 32 27 32 25 26 26 25 28 35 36 28 26 28 25 22 20 18
19 18 18 17 16 16 17 17 18 20 18 18 16 16 19 13 13 11 13 16 15 18 17 23 22 25 24 24 28 33 34 34 30 29 25 26 42 37 33 31 32 31 27 24 21
18 17 17 16 14 14 15 15 16 19 17 17 19 18 21 12 11 11 12 12 17 13 14 18 23 23 25 28 27 33 39 38 26 28 26 31 37 35 27 32 35 36 33 29 25
17 16 15 15 13 13 14 14 16 19 18 17 20 21 22 16 11 12 12 15 17 11 14 16 23 24 26 30 35 30 37 37 34 26 30 31 38 35 29 32 35 36 36 34 30
16 14 14 14 12 14 16 17 21 27 31 31 25 25 22 13 11 9 10 10 14 18 20 17 22 27 26 32 23 29 32 33 34 21 28 36 38 38 38 31 32 34 33 34 31
14 14 13 13 13 14 16 20 23 23 32 28 25 24 21 17 21 12 15 19 22 18 12 14 17 16 24 25 25 25 24 27 27 26 27 32 39 38 39 38 35 34 32 32 31
13 13 13 14 14 17 18 20 18 19 28 28 25 24 22 21 22 13 15 18 18 19 16 16 19 20 20 24 26 26 25 22 26 26 28 32 40 39 38 39 37 35 32 31 34
11 13 14 16 17 19 19 18 17 17 28 30 25 22 19 19 21 15 14 18 17 18 14 17 22 23 22 25 27 28 26 25 24 26 31 27 35 34 34 37 37 36 33 30 31
12 14 15 15 20 19 19 18 17 18 34 23 23 19 20 20 21 20 16 16 19 17 15 16 20 23 23 23 24 23 19 23 25 30 30 28 32 37 31 32 33 32 31 30 28
13 15 17 18 19 20 19 19 19 25 33 24 21 20 20 18 17 18 14 16 14 15 20 19 22 22 19 17 21 18 17 24 24 29 35 34 32 35 33 29 29 29 30 29 25
14 16 17 17 19 19 19 18 24 30 21 24 21 19 17 17 15 16 16 13 11 4 16 20 19 21 21 16 20 19 16 23 26 30 35 25 33 38 23 23 25 25 27 24 22
15 17 17 19 20 20 18 21 30 25 23 19 19 17 17 16 14 11 10 14 10 14 11 17 23 17 20 24 23 25 22 22 30 32 32 25 32 33 26 29 30 25 23 23 23
15 16 18 18 18 18 19 27 26 23 20 20 18 19 18 15 13 10 5 12 12 6 13 15 23 15 19 19 20 23 28 28 26 25 28 28 28 31 30 21 18 20 20 21 20
12 14 17 16 17 17 21 24 21 19 18 18 20 18 19 15 14 10 5 6 16 8 11 13 18 17 20 21 23 20 19 22 25 30 33 29 31 28 19 19 16 17 18 17 21
12 13 16 15 15 17 21 20 18 15 15 16 17 18 16 15 11 10 8 4 12 8 14 21 22 18 20 28 30 28 25 23 25 29 29 29 26 18 16 9 17 17 18 18 19
12 13 14 14 16 16 18 17 17 15 13 13 13 12 15 16 15 10 7 2 4 9 18 20 20 25 27 24 21 30 35 30 28 25 32 34 29 16 15 18 19 17 15 16 17
11 14 13 13 18 17 17 16 14 14 13 15 15 13 16 17 18 13 8 4 3 9 18 20 29 30 27 24 24 29 25 25 32 32 29 31 27 21 22 23 19 17 18 21 20
10 13 15 13 16 17 17 16 16 14 13 13 14 16 16 16 13 16 12 9 3 7 27 24 29 35 38 29 22 29 28 26 28 35 35 38 37 30 25 24 24 23 26 27 25
10 13 13 15 15 16 18 17 17 19 15 17 19 18 20 20 18 18 17 12 5 6 29 24 29 31 33 29 26 26 28 27 32 36 37 36 41 38 36 36 33 27 35 30 31
9 11 13 15 17 17 19 18 18 17 18 20 19 21 20 19 19 21 16 10 9 4 20 29 28 25 32 32 31 32 28 28 32 31 40 44 46 39 38 38 39 38 35 35 32
8 10 13 15 16 17 19 19 19 19 19 18 22 22 20 20 19 16 12 8 4 1 10 31 26 26 28 25 25 35 36 31 31 31 33 40 39 33 35 35 34 35 36 36 35
Wind_Direction
27 26 25 27 29 27 27 29 27 24 25 25 27 28 345 298 277 251 241 241 242 245 234 240 229 226 224 227 228 230 232 229 230 230 237 236 241 249 257 254 259 256 262 264 262
27 26 27 28 29 28 29 30 28 27 28 28 31 35 345 273 248 256 245 240 249 246 246 229 222 221 222 227 227 225 229 229 232 234 238 240 241 243 247 252 252 257 266 266 251
28 27 29 28 29 30 30 30 30 29 30 32 36 41 0 253 265 258 249 245 246 248 249 242 231 224 223 226 227 227 227 230 240 244 236 245 238 244 246 247 256 254 261 257 251
29 29 30 31 31 31 31 32 31 31 30 36 41 48 224 240 277 256 261 252 241 245 236 233 229 223 223 223 227 231 231 235 242 241 245 244 242 244 244 249 256 267 271 257 250
29 29 31 33 33 33 33 34 33 32 33 40 46 60 157 293 285 269 263 245 234 231 224 224 224 223 224 224 227 226 233 239 239 245 245 247 244 245 245 249 257 265 272 267 252
30 30 32 35 34 35 35 37 36 35 37 45 52 72 96 335 269 265 266 243 231 223 222 225 228 231 230 230 229 233 231 236 239 246 248 242 244 247 246 249 253 260 267 269 266
30 32 33 37 38 38 38 41 41 40 45 50 60 74 65 274 268 240 260 246 239 224 221 227 238 232 233 231 233 242 234 239 237 239 247 246 244 243 249 249 251 255 262 267 268
31 34 35 39 43 44 44 48 50 46 55 57 71 80 80 278 248 248 236 227 237 224 224 228 244 239 238 236 230 233 235 235 240 241 250 249 243 245 248 251 251 254 258 262 265
32 36 38 41 48 51 50 55 58 52 64 66 71 77 80 246 236 227 234 232 211 220 226 232 237 237 233 221 225 228 229 232 241 241 252 248 247 246 248 248 253 255 256 259 262
33 40 42 47 56 58 57 68 69 60 73 77 74 76 84 138 241 241 235 210 207 204 219 243 232 228 225 221 225 228 234 236 241 248 249 251 248 250 252 255 255 256 256 257 259
37 43 48 53 65 66 63 69 61 58 59 63 67 77 94 173 239 263 255 233 208 218 211 229 225 226 224 224 243 237 238 241 241 256 252 250 251 250 253 256 257 257 259 259 255
41 48 56 61 74 74 72 66 68 71 57 67 74 82 103 140 138 196 206 210 210 217 227 238 233 243 231 234 237 236 241 242 246 252 259 257 253 254 252 253 257 259 261 264 259
48 54 62 69 80 74 70 76 87 83 60 63 73 81 103 117 129 191 219 212 216 223 236 242 240 241 235 233 234 235 240 241 248 253 261 261 256 255 254 254 257 259 264 268 264
60 61 68 76 70 68 69 84 90 90 57 56 66 79 105 122 123 207 224 226 232 224 241 241 254 240 241 237 235 237 248 256 252 253 256 253 257 254 254 255 256 259 263 267 269
65 66 73 84 63 66 73 92 93 84 45 58 68 96 103 106 119 146 236 240 237 235 251 264 248 238 242 242 240 252 251 255 257 255 265 258 258 255 263 259 258 262 266 268 270
59 70 75 71 69 75 87 92 88 57 48 60 70 75 84 94 110 120 143 255 264 252 260 264 253 246 252 252 247 253 257 253 261 259 258 256 258 261 260 265 266 269 268 270 267
60 74 68 73 63 88 91 86 56 46 63 57 63 73 74 76 90 127 133 126 119 121 261 270 266 261 256 254 250 254 249 253 258 256 256 269 260 256 272 273 272 279 277 275 270
65 73 61 61 73 83 84 65 44 53 59 66 65 67 65 75 75 120 128 158 161 278 280 262 265 263 256 251 251 249 249 260 256 258 260 263 263 263 278 275 271 278 286 285 282
73 53 51 63 72 76 66 45 47 53 63 58 60 53 56 62 59 75 146 174 170 250 280 266 271 268 265 259 261 251 255 261 271 275 267 265 273 274 272 280 279 282 291 288 284
44 43 39 66 77 76 54 48 54 64 62 60 50 52 40 47 44 52 66 155 184 254 275 285 279 264 261 259 255 263 265 264 263 262 260 266 262 267 274 270 285 295 299 303 289
40 27 37 67 71 56 42 47 54 66 62 55 47 40 34 29 28 34 32 52 179 242 261 272 271 275 259 249 247 254 263 264 268 261 261 260 267 275 275 287 295 299 308 313 303
16 17 48 66 39 46 40 46 50 56 60 47 43 29 20 21 14 11 3 16 125 262 255 263 272 263 258 267 267 258 252 259 261 263 257 259 261 285 287 286 292 301 314 321 318
3 5 41 56 20 30 35 37 45 46 45 39 32 29 22 12 9 7 351 343 176 282 274 254 260 260 263 270 267 260 261 264 256 257 261 257 266 281 285 287 290 290 300 305 307
356 9 8 32 26 25 26 33 32 40 27 26 14 12 6 359 356 357 357 2 10 268 271 270 259 254 254 268 269 260 260 258 261 259 261 260 265 271 285 290 285 278 284 293 295
347 349 8 15 21 23 25 25 22 21 28 21 15 12 7 2 357 346 347 336 275 291 264 269 260 256 257 268 271 271 264 261 258 261 262 265 260 270 276 274 276 279 284 285 289
354 354 1 4 14 17 15 18 18 20 19 14 7 6 5 358 352 345 350 350 8 13 277 260 262 267 262 264 267 267 270 267 265 267 264 261 254 275 275 276 271 274 280 283 288
4 15 2 9 10 14 14 14 15 17 19 15 9 6 360 360 4 354 348 339 277 267 314 257 265 260 263 265 276 266 263 268 270 268 271 266 272 283 281 281 283 282 281 282 282